SL-14 R/B, 19791

Orbit data source: Space-Track

SL-14 R/B, 19791 is space debris in LEO originally from a launch on Fri, 10 Feb 1989 UTC launched from the Plesetsk Missile And Space Complex (PKMTR). Debris objects in space refer to the collection of defunct objects orbiting the Earth. Examples of debris include non-operational satellites, rocket bodies, and fragments generated from explosions, collisions, or faulty payload assembly.

Loading next visibility...
Identifier
19791, 1989-009G
Orbit
LEO
Country
Flag of CISCIS
Related business
Manufacturer
Yuzhnoe
Mission
Spacecraft
Bus & Motor
S5M, Unknown motor
Mass
1,600 kg wet, 1,600 kg dry
Launch date (UTC)
1989-02-10 (37 years ago)
Launch vehicle
Unknown
Launch site
Plesetsk Missile And Space Complex (PKMTR)
Object type
Payload
Rocket body
Debris
Shape & HBR
Cyl, 1.4 m
Radar Cross Section
7.351 m², Large (>1 m²)

Expand to show TLE details & history
Last TLE update: 23 hours ago

TLE from 23 hours ago
0 SL-14 R/B
1 19791U 89009G   25260.09622844  .00000014  00000-0  20329-4 0  9998
2 19791  82.6120 303.2136 0034569 189.7293 198.1650 12.54878919676308
Epoch: 2025-09-17T02:18Z
TLE epoch observation values (Epoch: 2025-09-17T02:18:34.137Z)
Latitude
27.55787°
Longitude
-83.84486°
Altitude
1,473.09 km
Speed
7.117 km/s
True Right ascension
20h 28m 17s
True Declination
27° 25' 48"
Sunlit
Object was in daylight at epoch
Visualization orbit readout
Latitude
Unknown
Longitude
Unknown
Altitude
Unknown
Speed
Unknown
Apparent Right ascension
Unknown
Apparent Declination
Unknown
Sunlit
N/A
Visualization observer readout
Local Sidereal Time
18:07:36
Azimuth
Unknown
Elevation
Unknown
Doppler factor
Unknown
Orbital elements
Apogee altitude
1,468.515 km
Perigee altitude
1,414.452 km
Semi-major axis
7,819.621 km
Eccentricity
0.00346
Inclination
82.612°
RAAN
303.2136°
Arg. of periapsis
189.7293°
True anomaly
198.04201°
Mean anomaly
198.165°
Eccentric anomaly
198.10345°
Mean motion
3.13881 °/min
Orbital period
114.69 mins
BSTAR
0.000020329
Loading maneuver chart data...
Computing Atmospheric mass density...
Loading historical data...
Loading historical data...
Loading historical data...
Loading historical data...
Loading historical data...
Loading historical data...
Loading historical data...

Documentation

Showing up to 5 results
|